Tracking 31027 objects as of 19-Jul-2025
HD Live streaming from Space Station
objects crossing your sky now

STARLINK-5326

Track STARLINK-5326 now!
10-day predictions
STARLINK-5326 is classified as:


NORAD ID: 55656
Int'l Code: 2023-021AE
Perigee: 576.2 km
Apogee: 582.2 km
Inclination: 70.0 °
Period: 96.1 minutes
Semi major axis: 6950 km
RCS: Unknown
Launch date: February 17, 2023
Source: United States (US)
Launch site: AIR FORCE WESTERN TEST RANGE (AFWTR)
Your satellite tracking list
ICEYE-X27
Track 1 satellite(s)




NASA's NSSDC Master Catalog

Two Line Element Set (TLE):
1 55656U 23021AE  25199.87961146 -.00000206  00000-0 -94732-5 0  9993
2 55656  70.0002  53.7881 0004376 271.6527  88.4131 14.98330341133772
Source of the keplerian elements: AFSPC